Regional Weather Roundup
Issued by NWS

Home | Current Version | Previous Version | Text Only | Print | Product List | Glossary On
Versions: 1 2 3 4 5 6 7 8 9 10 11 12 13 14 15 16 17 18 19 20 21 22 23 24 25 26 27 28 29 30 31 32 33 34 35 36 37 38 39 40 41 42 43 44 45 46 47 48 49 50
281
ASUS45 KBOI 190110
RWRID

IDAHO REGIONAL WEATHER ROUNDUP
NATIONAL WEATHER SERVICE BOISE ID
600 PM MST SAT NOV 18 2017

NOTE: "FAIR" INDICATES FEW OR NO CLOUDS BELOW 12000 FEET
WITH NO SIGNIFICANT WEATHER AND/OR OBSTRUCTIONS TO VISIBILITY

IDZ012-014-190200-
SOUTHWEST IDAHO


CITY           SKY/WX    TMP DP  RH WIND       PRES   REMARKS
BOISE          MOCLDY    39  23  52 SE10      30.29F WCI  32
CALDWELL       MOCLDY    42  24  49 SE10      30.29F
MOUNTAIN HOME  MOCLDY    33  25  71 E12       30.30F WCI  24
$$

IDZ016-017-190200-
SOUTHCENTRAL IDAHO


CITY           SKY/WX    TMP DP  RH WIND       PRES   REMARKS
BURLEY         MOCLDY    36  21  54 S6        30.31F WCI  31
JEROME         MOCLDY    35  23  61 NE12      30.31F WCI  27
TWIN FALLS     MOCLDY    28  25  88 SE5       30.30F WCI  23
$$

IDZ019>023-190200-
SOUTHEAST IDAHO


CITY           SKY/WX    TMP DP  RH WIND       PRES   REMARKS
IDAHO FALLS    CLOUDY    34  21  59 SE3       30.36F
POCATELLO      CLEAR     34  20  56 SW9       30.36S WCI  27
REXBURG        CLOUDY    32  24  72 SE5       30.36F WCI  27
$$

IDZ006-010-011-018-031-032-190200-
CENTRAL IDAHO MOUNTAINS


CITY           SKY/WX    TMP DP  RH WIND       PRES   REMARKS
MCCALL         MOCLDY    29  21  72 NE3       30.23F
HAILEY         CLEAR     28  19  69 CALM      30.34S
STANLEY          N/A     16  12  84 S5        30.26F WCI   9
SALMON         CLOUDY    29  19  66 E5        30.28S WCI  24
CHALLIS        PTCLDY    27  17  66 CALM      30.27F
$$

IDZ002-004-006-007-026-190200-
NORTHERN IDAHO


CITY           SKY/WX    TMP DP  RH WIND       PRES   REMARKS
LEWISTON       MOCLDY    44  32  62 SE5       30.19F
LOWELL           N/A     36  34  92 CALM      30.26F
COEUR D`ALENE  PTCLDY    33  29  85 NE3       30.20S
MULLAN PASS    PTCLDY    22  19  89 S7        30.10F WCI  13
$$




USA.gov is the U.S. government's official web portal to all federal, state and local government web resources and services.